Portsmouth, NH

2:41 PM EDT on April 24, 2017 (GMT -0400)
Pease International Tradeport

Weather History for KPSM - January, 2012

Change the Weather History Date:

Tuesday, January 31, 2012

  Actual Average Record
Temperature  
Mean Temperature 29 °F -  
Max Temperature 35 °F 32 °F 62 °F (2013)
Min Temperature 23 °F 16 °F -2 °F (1985)
Degree Days  
Heating Degree Days 36    
Moisture  
Dew Point 25 °F    
Average Humidity 87    
Maximum Humidity 93    
Minimum Humidity 67    
Precipitation  
Precipitation 0.02 in - - ()
Sea Level Pressure  
Sea Level Pressure 30.16 in    
Wind  
Wind Speed 3 mph (NNE)    
Max Wind Speed 10 mph    
Max Gust Speed -    
Visibility 6 miles    
Events Snow    
Averages and records for this station are not official NWS values.
T = Trace of Precipitation, MM = Missing Value Source: NWS Daily Summary

Daily Weather History Graph

Daily Weather History Graph

Search for Another Location

Airport or City:

Trip Planner

Search our weather history database for the weather conditions in past years. The results will help you decide how hot, cold, wet, or windy it might be!

Date:

Astronomy

Jan. 31, 2012 Rise Set
Actual Time 7:00 AM EST 4:53 PM EST
Civil Twilight 6:29 AM EST 5:24 PM EST
Nautical Twilight 5:55 AM EST 5:58 PM EST
Astronomical Twilight 5:22 AM EST 6:31 PM EST
Moon 10:41 AM EST (1/31) 12:45 AM EST (1/31)
Length of Visible Light 10h 54m
Length of Day
9h 53m
First Quarter, 55% of the Moon is Illuminated
Jan 31
First Quarter
Feb 7
Full
Feb 14
Last Quarter
Feb 21
New
Feb 29
First Quarter

Hourly Weather History & Observations

Time (EST) Temp. Windchill Dew Point Humidity Pressure Visibility Wind Dir Wind Speed Gust Speed Precip Events Conditions
12:55 AM 23.7 °F - 14.2 °F 67% 30.28 in 10.0 mi Calm Calm - N/A   Overcast
1:55 AM 23.7 °F - 15.8 °F 72% 30.27 in 10.0 mi Calm Calm - N/A   Overcast
2:55 AM 23.7 °F - 17.1 °F 76% 30.25 in 10.0 mi Calm Calm - N/A   Overcast
3:55 AM 25.0 °F - 17.4 °F 73% 30.24 in 5.0 mi Calm Calm - 0.00 in Snow Light Snow
4:16 AM 24.8 °F - 17.6 °F 74% 30.24 in 7.0 mi Calm Calm - N/A Snow Light Snow
4:47 AM 24.8 °F - 19.4 °F 80% 30.25 in 1.5 mi Calm Calm - N/A Snow Light Snow
4:55 AM 25.3 °F 21.1 °F 19.9 °F 80% 30.25 in 1.0 mi SSE 3.5 mph - 0.00 in Snow Light Snow
5:40 AM 24.8 °F - 21.2 °F 86% 30.23 in 2.5 mi Calm Calm - N/A Snow Light Snow
5:55 AM 25.2 °F 20.9 °F 22.5 °F 89% 30.23 in 4.0 mi ENE 3.5 mph - 0.01 in Snow Light Snow
6:55 AM 26.1 °F - 23.5 °F 90% 30.22 in 5.0 mi Calm Calm - 0.00 in Snow Light Snow
7:26 AM 26.6 °F 21.2 °F 24.8 °F 93% 30.22 in 4.0 mi NE 4.6 mph - N/A Snow Light Snow
7:44 AM 26.6 °F - 24.8 °F 93% 30.22 in 2.5 mi Calm Calm - N/A Snow Light Snow
7:55 AM 27.1 °F - 24.6 °F 90% 30.22 in 2.5 mi Calm Calm - 0.00 in Snow Light Snow
8:55 AM 29.7 °F - 27.3 °F 91% 30.21 in 2.0 mi Calm Calm - 0.00 in Snow Light Snow
9:55 AM 32.2 °F 26.7 °F 29.7 °F 90% 30.19 in 1.5 mi ESE 5.8 mph - 0.00 in Snow Light Snow
10:44 AM 33.8 °F 27.7 °F 30.2 °F 87% 30.17 in 3.0 mi East 6.9 mph - N/A Snow Light Snow
10:55 AM 33.1 °F 27.7 °F 30.7 °F 91% 30.16 in 4.0 mi East 5.8 mph - 0.01 in Snow Light Snow
11:30 AM 33.8 °F 29.6 °F 32.0 °F 93% 30.14 in 2.0 mi ENE 4.6 mph - N/A Snow Light Snow
11:55 AM 34.0 °F 28.0 °F 31.8 °F 92% 30.12 in 2.5 mi ENE 6.9 mph - 0.00 in Snow Light Snow
12:15 PM 33.8 °F 29.6 °F 32.0 °F 93% 30.11 in 10.0 mi NE 4.6 mph - N/A Snow Light Snow
12:55 PM 35.1 °F 30.1 °F 33.1 °F 92% 30.09 in 7.0 mi NNW 5.8 mph - 0.00 in Snow Light Snow
1:24 PM 35.6 °F 29.2 °F 33.8 °F 93% 30.08 in 10.0 mi NNW 8.1 mph - N/A   Mostly Cloudy
1:55 PM 32.0 °F 24.8 °F 30.2 °F 93% 30.07 in 10.0 mi NW 8.1 mph - 0.00 in   Overcast
2:55 PM 31.1 °F 24.5 °F 29.3 °F 93% 30.06 in 10.0 mi NNW 6.9 mph - N/A   Overcast
3:55 PM 30.4 °F 21.5 °F 28.4 °F 92% 30.07 in 10.0 mi NNW 10.4 mph - N/A   Overcast
4:55 PM 29.5 °F 21.1 °F 26.6 °F 89% 30.07 in 10.0 mi North 9.2 mph - N/A   Overcast
5:55 PM 28.8 °F 19.5 °F 25.9 °F 89% 30.08 in 10.0 mi North 10.4 mph - N/A   Overcast
6:55 PM 28.0 °F 20.8 °F 25.2 °F 89% 30.08 in 10.0 mi North 6.9 mph - N/A   Overcast
7:55 PM 27.7 °F 20.4 °F 24.8 °F 89% 30.09 in 10.0 mi NNW 6.9 mph - N/A   Overcast
8:55 PM 27.3 °F 19.9 °F 24.8 °F 90% 30.08 in 8.0 mi North 6.9 mph - N/A   Overcast
9:55 PM 27.0 °F 19.5 °F 24.4 °F 90% 30.06 in 8.0 mi NNW 6.9 mph - N/A   Overcast
10:55 PM 26.4 °F 19.8 °F 24.3 °F 92% 30.05 in 8.0 mi NW 5.8 mph - N/A   Overcast
11:55 PM 26.4 °F - 24.1 °F 91% 30.03 in 8.0 mi Calm Calm - N/A   Overcast